Location: Clifton Park
(41.4873°N, 81.8024°W)
Time: 23:21:18
(UTC+00:00)

STARLINK-1013 - Pass Details

Date: 21 January 2020
Orbit: 411 x 413 km, 53.0° (Epoch: 23 February)

Event Time Altitude Azimuth Distance (km) Brightness Sun altitude
Exits shadow 10:22:27 10° 146° (SE) 1,417 6.2 -27.1°
Reaches altitude 10° 10:22:29 10° 145° (SE) 1,414 6.2 -27.1°
Drops below altitude 10° 10:24:21 10° 111° (ESE) 1,410 6.6 -26.7°
Enters shadow 11:25:52 -61° 232° (SW) 11,621 10.3 -15.3°
Maximum altitude 11:59:03 72° 323° (NW) 406 2.8 -9.4°
